Year,Month,Day,Hour,Minute,Value (Times are PST for temperature in C)
2010,08,14,00,00,18.70
2010,08,14,00,01,18.70
2010,08,14,00,02,18.70
2010,08,14,00,03,18.70
2010,08,14,00,04,18.70
2010,08,14,00,05,18.60
2010,08,14,00,06,18.60
2010,08,14,00,07,18.60
2010,08,14,00,08,18.60
2010,08,14,00,09,18.50
2010,08,14,00,10,18.50
2010,08,14,00,11,18.50
2010,08,14,00,12,18.40
2010,08,14,00,13,18.40
2010,08,14,00,14,18.40
2010,08,14,00,15,18.40
2010,08,14,00,16,18.40
2010,08,14,00,17,18.40
2010,08,14,00,18,18.40
2010,08,14,00,19,18.40
2010,08,14,00,20,18.40
2010,08,14,00,21,18.40
2010,08,14,00,22,18.30
2010,08,14,00,23,18.30
2010,08,14,00,24,18.30
2010,08,14,00,25,18.30
2010,08,14,00,26,18.30
2010,08,14,00,27,18.30
2010,08,14,00,28,18.40
2010,08,14,00,29,18.40
2010,08,14,00,30,18.40
2010,08,14,00,31,18.40
2010,08,14,00,32,18.30
2010,08,14,00,33,18.30
2010,08,14,00,34,18.30
2010,08,14,00,35,18.30
2010,08,14,00,36,18.30
2010,08,14,00,37,18.20
2010,08,14,00,38,18.20
2010,08,14,00,39,18.20
2010,08,14,00,40,18.10
2010,08,14,00,41,18.10
2010,08,14,00,42,18.10
2010,08,14,00,43,18.10
2010,08,14,00,44,18.00
2010,08,14,00,45,18.00
2010,08,14,00,46,17.90
2010,08,14,00,47,17.90
2010,08,14,00,48,17.90
2010,08,14,00,49,17.90
2010,08,14,00,50,17.90
2010,08,14,00,51,17.90
2010,08,14,00,52,17.90
2010,08,14,00,53,17.90
2010,08,14,00,54,17.90
2010,08,14,00,55,17.90
2010,08,14,00,56,17.90
2010,08,14,00,57,17.90
2010,08,14,00,58,17.90
2010,08,14,00,59,17.90
2010,08,14,01,00,17.80
2010,08,14,01,01,17.80
2010,08,14,01,02,17.80
2010,08,14,01,03,17.80
2010,08,14,01,04,17.80
2010,08,14,01,05,17.80
2010,08,14,01,06,17.80
2010,08,14,01,07,17.70
2010,08,14,01,08,17.70
2010,08,14,01,09,17.70
2010,08,14,01,10,17.70
2010,08,14,01,11,17.70
2010,08,14,01,12,17.70
2010,08,14,01,13,17.60
2010,08,14,01,14,17.60
2010,08,14,01,15,17.60
2010,08,14,01,16,17.50
2010,08,14,01,17,17.50
2010,08,14,01,18,17.50
2010,08,14,01,19,17.50
2010,08,14,01,20,17.50
2010,08,14,01,21,17.50
2010,08,14,01,22,17.40
2010,08,14,01,23,17.40
2010,08,14,01,24,17.40
2010,08,14,01,25,17.40
2010,08,14,01,26,17.40
2010,08,14,01,27,17.40
2010,08,14,01,28,17.40
2010,08,14,01,29,17.40
2010,08,14,01,30,17.50
2010,08,14,01,31,17.50
2010,08,14,01,32,17.40
2010,08,14,01,33,17.40
2010,08,14,01,34,17.40
2010,08,14,01,35,17.40
2010,08,14,01,36,17.50
2010,08,14,01,37,17.50
2010,08,14,01,38,17.40
2010,08,14,01,39,17.40
2010,08,14,01,40,17.40
2010,08,14,01,41,17.40
2010,08,14,01,42,17.40
2010,08,14,01,43,17.40
2010,08,14,01,44,17.40
2010,08,14,01,45,17.40
2010,08,14,01,46,17.40
2010,08,14,01,47,17.30
2010,08,14,01,48,17.30
2010,08,14,01,49,17.30
2010,08,14,01,50,17.20
2010,08,14,01,51,17.20
2010,08,14,01,52,17.10
2010,08,14,01,53,17.10
2010,08,14,01,54,17.10
2010,08,14,01,55,17.10
2010,08,14,01,56,17.10
2010,08,14,01,57,17.10
2010,08,14,01,58,17.10
2010,08,14,01,59,17.00
2010,08,14,02,00,17.00
2010,08,14,02,01,17.00
2010,08,14,02,02,17.00
2010,08,14,02,03,17.00
2010,08,14,02,04,17.00
2010,08,14,02,05,17.00
2010,08,14,02,06,17.00
2010,08,14,02,07,17.00
2010,08,14,02,08,17.00
2010,08,14,02,09,17.00
2010,08,14,02,10,17.00
2010,08,14,02,11,16.90
2010,08,14,02,12,16.90
2010,08,14,02,13,16.90
2010,08,14,02,14,16.90
2010,08,14,02,15,16.90
2010,08,14,02,16,16.90
2010,08,14,02,17,16.90
2010,08,14,02,18,16.90
2010,08,14,02,19,16.80
2010,08,14,02,20,16.80
2010,08,14,02,21,16.80
2010,08,14,02,22,16.80
2010,08,14,02,23,16.80
2010,08,14,02,24,16.70
2010,08,14,02,25,16.70
2010,08,14,02,26,16.70
2010,08,14,02,27,16.70
2010,08,14,02,28,16.70
2010,08,14,02,29,16.70
2010,08,14,02,30,16.70
2010,08,14,02,31,16.70
2010,08,14,02,32,16.70
2010,08,14,02,33,16.70
2010,08,14,02,34,16.70
2010,08,14,02,35,16.60
2010,08,14,02,36,16.60
2010,08,14,02,37,16.60
2010,08,14,02,38,16.60
2010,08,14,02,39,16.60
2010,08,14,02,40,16.70
2010,08,14,02,41,17.00
2010,08,14,02,42,17.30
2010,08,14,02,43,17.60
2010,08,14,02,44,17.90
2010,08,14,02,45,18.20
2010,08,14,02,46,18.50
2010,08,14,02,47,18.60
2010,08,14,02,48,18.80
2010,08,14,02,49,19.00
2010,08,14,02,50,19.10
2010,08,14,02,51,19.20
2010,08,14,02,52,19.20
2010,08,14,02,53,19.20
2010,08,14,02,54,19.10
2010,08,14,02,55,19.00
2010,08,14,02,56,19.00
2010,08,14,02,57,18.90
2010,08,14,02,58,18.80
2010,08,14,02,59,18.70
2010,08,14,03,00,18.70
2010,08,14,03,01,18.60
2010,08,14,03,02,18.60
2010,08,14,03,03,18.50
2010,08,14,03,04,18.40
2010,08,14,03,05,18.40
2010,08,14,03,06,18.40
2010,08,14,03,07,18.30
2010,08,14,03,08,18.30
2010,08,14,03,09,18.20
2010,08,14,03,10,18.20
2010,08,14,03,11,18.10
2010,08,14,03,12,18.00
2010,08,14,03,13,17.90
2010,08,14,03,14,17.80
2010,08,14,03,15,17.80
2010,08,14,03,16,17.80
2010,08,14,03,17,17.80
2010,08,14,03,18,17.70
2010,08,14,03,19,17.70
2010,08,14,03,20,17.70
2010,08,14,03,21,17.60
2010,08,14,03,22,17.60
2010,08,14,03,23,17.60
2010,08,14,03,24,17.50
2010,08,14,03,25,17.50
2010,08,14,03,26,17.40
2010,08,14,03,27,17.40
2010,08,14,03,28,17.30
2010,08,14,03,29,17.30
2010,08,14,03,30,17.30
2010,08,14,03,31,17.30
2010,08,14,03,32,17.30
2010,08,14,03,33,17.30
2010,08,14,03,34,17.30
2010,08,14,03,35,17.30
2010,08,14,03,36,17.30
2010,08,14,03,37,17.30
2010,08,14,03,38,17.30
2010,08,14,03,39,17.30
2010,08,14,03,40,17.30
2010,08,14,03,41,17.30
2010,08,14,03,42,17.30
2010,08,14,03,43,17.30
2010,08,14,03,44,17.30
2010,08,14,03,45,17.20
2010,08,14,03,46,17.20
2010,08,14,03,47,17.20
2010,08,14,03,48,17.10
2010,08,14,03,49,17.10
2010,08,14,03,50,17.10
2010,08,14,03,51,17.00
2010,08,14,03,52,17.00
2010,08,14,03,53,17.00
2010,08,14,03,54,16.90
2010,08,14,03,55,16.90
2010,08,14,03,56,16.90
2010,08,14,03,57,16.90
2010,08,14,03,58,16.80
2010,08,14,03,59,16.80
2010,08,14,04,00,16.80
2010,08,14,04,01,16.80
2010,08,14,04,02,16.80
2010,08,14,04,03,16.80
2010,08,14,04,04,16.70
2010,08,14,04,05,16.70
2010,08,14,04,06,16.70
2010,08,14,04,07,16.70
2010,08,14,04,08,16.70
2010,08,14,04,09,16.70
2010,08,14,04,10,16.70
2010,08,14,04,11,16.70
2010,08,14,04,12,16.70
2010,08,14,04,13,16.70
2010,08,14,04,14,16.70
2010,08,14,04,15,16.70
2010,08,14,04,16,16.70
2010,08,14,04,17,16.60
2010,08,14,04,18,16.60
2010,08,14,04,19,16.60
2010,08,14,04,20,16.60
2010,08,14,04,21,16.60
2010,08,14,04,22,16.50
2010,08,14,04,23,16.50
2010,08,14,04,24,16.50
2010,08,14,04,25,16.40
2010,08,14,04,26,16.40
2010,08,14,04,27,16.40
2010,08,14,04,28,16.40
2010,08,14,04,29,16.40
2010,08,14,04,30,16.40
2010,08,14,04,31,16.30
2010,08,14,04,32,16.30
2010,08,14,04,33,16.30
2010,08,14,04,34,16.30
2010,08,14,04,35,16.30
2010,08,14,04,36,16.30
2010,08,14,04,37,16.30
2010,08,14,04,38,16.20
2010,08,14,04,39,16.20
2010,08,14,04,40,16.20
2010,08,14,04,41,16.20
2010,08,14,04,42,16.20
2010,08,14,04,43,16.20
2010,08,14,04,44,16.20
2010,08,14,04,45,16.20
2010,08,14,04,46,16.20
2010,08,14,04,47,16.20
2010,08,14,04,48,16.20
2010,08,14,04,49,16.20
2010,08,14,04,50,16.20
2010,08,14,04,51,16.20
2010,08,14,04,52,16.20
2010,08,14,04,53,16.20
2010,08,14,04,54,16.20
2010,08,14,04,55,16.20
2010,08,14,04,56,16.20
2010,08,14,04,57,16.20
2010,08,14,04,58,16.20
2010,08,14,04,59,16.20
2010,08,14,05,00,16.20
2010,08,14,05,01,16.20
2010,08,14,05,02,16.20
2010,08,14,05,03,16.20
2010,08,14,05,04,16.20
2010,08,14,05,05,16.20
2010,08,14,05,06,16.20
2010,08,14,05,07,16.20
2010,08,14,05,08,16.10
2010,08,14,05,09,16.10
2010,08,14,05,10,16.10
2010,08,14,05,11,16.10
2010,08,14,05,12,16.10
2010,08,14,05,13,16.10
2010,08,14,05,14,16.10
2010,08,14,05,15,16.10
2010,08,14,05,16,16.10
2010,08,14,05,17,16.10
2010,08,14,05,18,16.10
2010,08,14,05,19,16.10
2010,08,14,05,20,16.10
2010,08,14,05,21,16.10
2010,08,14,05,22,16.10
2010,08,14,05,23,16.10
2010,08,14,05,24,16.10
2010,08,14,05,25,16.10
2010,08,14,05,26,16.10
2010,08,14,05,27,16.10
2010,08,14,05,28,16.10
2010,08,14,05,29,16.10
2010,08,14,05,30,16.10
2010,08,14,05,31,16.10
2010,08,14,05,32,16.20
2010,08,14,05,33,16.20
2010,08,14,05,34,16.20
2010,08,14,05,35,16.20
2010,08,14,05,36,16.20
2010,08,14,05,37,16.20
2010,08,14,05,38,16.20
2010,08,14,05,39,16.20
2010,08,14,05,40,16.20
2010,08,14,05,41,16.20
2010,08,14,05,42,16.20
2010,08,14,05,43,16.20
2010,08,14,05,44,16.30
2010,08,14,05,45,16.30
2010,08,14,05,46,16.40
2010,08,14,05,47,16.40
2010,08,14,05,48,16.40
2010,08,14,05,49,16.50
2010,08,14,05,50,16.50
2010,08,14,05,51,16.60
2010,08,14,05,52,16.60
2010,08,14,05,53,16.60
2010,08,14,05,54,16.60
2010,08,14,05,55,16.60
2010,08,14,05,56,16.60
2010,08,14,05,57,16.60
2010,08,14,05,58,16.60
2010,08,14,05,59,16.60
2010,08,14,06,00,16.60
2010,08,14,06,01,16.60
2010,08,14,06,02,16.50
2010,08,14,06,03,16.50
2010,08,14,06,04,16.50
2010,08,14,06,05,16.50
2010,08,14,06,06,16.40
2010,08,14,06,07,16.40
2010,08,14,06,08,16.40
2010,08,14,06,09,16.40
2010,08,14,06,10,16.30
2010,08,14,06,11,16.30
2010,08,14,06,12,16.30
2010,08,14,06,13,16.20
2010,08,14,06,14,16.20
2010,08,14,06,15,16.20
2010,08,14,06,16,16.20
2010,08,14,06,17,16.20
2010,08,14,06,18,16.10
2010,08,14,06,19,16.10
2010,08,14,06,20,16.10
2010,08,14,06,21,16.10
2010,08,14,06,22,16.10
2010,08,14,06,23,16.10
2010,08,14,06,24,16.10
2010,08,14,06,25,16.10
2010,08,14,06,26,16.10
2010,08,14,06,27,16.10
2010,08,14,06,28,16.10
2010,08,14,06,29,16.10
2010,08,14,06,30,16.10
2010,08,14,06,31,16.10
2010,08,14,06,32,16.10
2010,08,14,06,33,16.10
2010,08,14,06,34,16.10
2010,08,14,06,35,16.10
2010,08,14,06,36,16.10
2010,08,14,06,37,16.10
2010,08,14,06,38,16.10
2010,08,14,06,39,16.10
2010,08,14,06,40,16.10
2010,08,14,06,41,16.10
2010,08,14,06,42,16.20
2010,08,14,06,43,16.20
2010,08,14,06,44,16.20
2010,08,14,06,45,16.20
2010,08,14,06,46,16.20
2010,08,14,06,47,16.20
2010,08,14,06,48,16.20
2010,08,14,06,49,16.30
2010,08,14,06,50,16.30
2010,08,14,06,51,16.30
2010,08,14,06,52,16.30
2010,08,14,06,53,16.30
2010,08,14,06,54,16.30
2010,08,14,06,55,16.30
2010,08,14,06,56,16.40
2010,08,14,06,57,16.40
2010,08,14,06,58,16.50
2010,08,14,06,59,16.60
2010,08,14,07,00,16.60
2010,08,14,07,01,16.60
2010,08,14,07,02,16.70
2010,08,14,07,03,16.70
2010,08,14,07,04,16.70
2010,08,14,07,05,16.80
2010,08,14,07,06,16.80
2010,08,14,07,07,16.90
2010,08,14,07,08,17.00
2010,08,14,07,09,17.00
2010,08,14,07,10,17.10
2010,08,14,07,11,17.20
2010,08,14,07,12,17.20
2010,08,14,07,13,17.30
2010,08,14,07,14,17.30
2010,08,14,07,15,17.40
2010,08,14,07,16,17.40
2010,08,14,07,17,17.50
2010,08,14,07,18,17.50
2010,08,14,07,19,17.60
2010,08,14,07,20,17.70
2010,08,14,07,21,17.80
2010,08,14,07,22,17.90
2010,08,14,07,23,18.00
2010,08,14,07,24,18.10
2010,08,14,07,25,18.10
2010,08,14,07,26,18.20
2010,08,14,07,27,18.30
2010,08,14,07,28,18.40
2010,08,14,07,29,18.40
2010,08,14,07,30,18.50
2010,08,14,07,31,18.50
2010,08,14,07,32,18.60
2010,08,14,07,33,18.60
2010,08,14,07,34,18.70
2010,08,14,07,35,18.70
2010,08,14,07,36,18.80
2010,08,14,07,37,18.80
2010,08,14,07,38,18.90
2010,08,14,07,39,19.00
2010,08,14,07,40,19.20
2010,08,14,07,41,19.30
2010,08,14,07,42,19.40
2010,08,14,07,43,19.50
2010,08,14,07,44,19.60
2010,08,14,07,45,19.60
2010,08,14,07,46,19.70
2010,08,14,07,47,19.70
2010,08,14,07,48,19.70
2010,08,14,07,49,19.80
2010,08,14,07,50,19.80
2010,08,14,07,51,19.80
2010,08,14,07,52,19.90
2010,08,14,07,53,19.90
2010,08,14,07,54,20.00
2010,08,14,07,55,20.10
2010,08,14,07,56,20.20
2010,08,14,07,57,20.30
2010,08,14,07,58,20.50
2010,08,14,07,59,20.70
2010,08,14,08,00,20.80
2010,08,14,08,01,20.90
2010,08,14,08,02,21.10
2010,08,14,08,03,21.20
2010,08,14,08,04,21.40
2010,08,14,08,05,21.60
2010,08,14,08,06,21.80
2010,08,14,08,07,21.90
2010,08,14,08,08,22.00
2010,08,14,08,09,22.20
2010,08,14,08,10,22.30
2010,08,14,08,11,22.40
2010,08,14,08,12,22.50
2010,08,14,08,13,22.60
2010,08,14,08,14,22.70
2010,08,14,08,15,22.70
2010,08,14,08,16,22.80
2010,08,14,08,17,22.80
2010,08,14,08,18,22.90
2010,08,14,08,19,23.00
2010,08,14,08,20,23.00
2010,08,14,08,21,23.10
2010,08,14,08,22,23.20
2010,08,14,08,23,23.30
2010,08,14,08,24,23.40
2010,08,14,08,25,23.40
2010,08,14,08,26,23.50
2010,08,14,08,27,23.60
2010,08,14,08,28,23.70
2010,08,14,08,29,23.70
2010,08,14,08,30,23.80
2010,08,14,08,31,23.80
2010,08,14,08,32,23.90
2010,08,14,08,33,23.90
2010,08,14,08,34,24.00
2010,08,14,08,35,24.10
2010,08,14,08,36,24.10
2010,08,14,08,37,24.10
2010,08,14,08,38,24.20
2010,08,14,08,39,24.20
2010,08,14,08,40,24.20
2010,08,14,08,41,24.20
2010,08,14,08,42,24.30
2010,08,14,08,43,24.30
2010,08,14,08,44,24.30
2010,08,14,08,45,24.30
2010,08,14,08,46,24.40
2010,08,14,08,47,24.40
2010,08,14,08,48,24.40
2010,08,14,08,49,24.40
2010,08,14,08,50,24.50
2010,08,14,08,51,24.50
2010,08,14,08,52,24.50
2010,08,14,08,53,24.50
2010,08,14,08,54,24.60
2010,08,14,08,55,24.60
2010,08,14,08,56,24.60
2010,08,14,08,57,24.70
2010,08,14,08,58,24.70
2010,08,14,08,59,24.80
2010,08,14,09,00,24.80
2010,08,14,09,01,24.80
2010,08,14,09,02,24.80
2010,08,14,09,03,24.80
2010,08,14,09,04,24.90
2010,08,14,09,05,24.90
2010,08,14,09,06,24.90
2010,08,14,09,07,25.00
2010,08,14,09,08,25.10
2010,08,14,09,09,25.10
2010,08,14,09,10,25.10
2010,08,14,09,11,25.20
2010,08,14,09,12,25.20
2010,08,14,09,13,25.20
2010,08,14,09,14,25.20
2010,08,14,09,15,25.20
2010,08,14,09,16,25.20
2010,08,14,09,17,25.20
2010,08,14,09,18,25.10
2010,08,14,09,19,25.10
2010,08,14,09,20,25.00
2010,08,14,09,21,24.90
2010,08,14,09,22,24.90
2010,08,14,09,23,24.90
2010,08,14,09,24,24.80
2010,08,14,09,25,24.80
2010,08,14,09,26,24.70
2010,08,14,09,27,24.60
2010,08,14,09,28,24.50
2010,08,14,09,29,24.50
2010,08,14,09,30,24.40
2010,08,14,09,31,24.40
2010,08,14,09,32,24.40
2010,08,14,09,33,24.30
2010,08,14,09,34,24.30
2010,08,14,09,35,24.20
2010,08,14,09,36,24.20
2010,08,14,09,37,24.10
2010,08,14,09,38,24.10
2010,08,14,09,39,24.10
2010,08,14,09,40,24.10
2010,08,14,09,41,24.10
2010,08,14,09,42,24.10
2010,08,14,09,43,24.10
2010,08,14,09,44,24.10
2010,08,14,09,45,24.10
2010,08,14,09,46,24.10
2010,08,14,09,47,24.10
2010,08,14,09,48,24.00
2010,08,14,09,49,23.90
2010,08,14,09,50,23.90
2010,08,14,09,51,23.90
2010,08,14,09,52,23.80
2010,08,14,09,53,23.80
2010,08,14,09,54,23.80
2010,08,14,09,55,23.70
2010,08,14,09,56,23.70
2010,08,14,09,57,23.60
2010,08,14,09,58,23.60
2010,08,14,09,59,23.60
2010,08,14,10,00,23.50
2010,08,14,10,01,23.40
2010,08,14,10,02,23.40
2010,08,14,10,03,23.40
2010,08,14,10,04,23.30
2010,08,14,10,05,23.30
2010,08,14,10,06,23.30
2010,08,14,10,07,23.40
2010,08,14,10,08,23.40
2010,08,14,10,09,23.40
2010,08,14,10,10,23.30
2010,08,14,10,11,23.30
2010,08,14,10,12,23.30
2010,08,14,10,13,23.30
2010,08,14,10,14,23.30
2010,08,14,10,15,23.30
2010,08,14,10,16,23.30
2010,08,14,10,17,23.30
2010,08,14,10,18,23.30
2010,08,14,10,19,23.30
2010,08,14,10,20,23.30
2010,08,14,10,21,23.30
2010,08,14,10,22,23.30
2010,08,14,10,23,23.20
2010,08,14,10,24,23.20
2010,08,14,10,25,23.20
2010,08,14,10,26,23.30
2010,08,14,10,27,23.30
2010,08,14,10,28,23.30
2010,08,14,10,29,23.30
2010,08,14,10,30,23.20
2010,08,14,10,31,23.20
2010,08,14,10,32,23.20
2010,08,14,10,33,23.20
2010,08,14,10,34,23.20
2010,08,14,10,35,23.20
2010,08,14,10,36,23.20
2010,08,14,10,37,23.20
2010,08,14,10,38,23.20
2010,08,14,10,39,23.20
2010,08,14,10,40,23.20
2010,08,14,10,41,23.10
2010,08,14,10,42,23.10
2010,08,14,10,43,23.00
2010,08,14,10,44,22.90
2010,08,14,10,45,22.90
2010,08,14,10,46,22.90
2010,08,14,10,47,22.90
2010,08,14,10,48,22.90
2010,08,14,10,49,22.90
2010,08,14,10,50,22.90
2010,08,14,10,51,22.90
2010,08,14,10,52,22.90
2010,08,14,10,53,22.90
2010,08,14,10,54,22.80
2010,08,14,10,55,22.80
2010,08,14,10,56,22.90
2010,08,14,10,57,22.90
2010,08,14,10,58,22.90
2010,08,14,10,59,23.00
2010,08,14,11,00,23.00
2010,08,14,11,01,23.10
2010,08,14,11,02,23.10
2010,08,14,11,03,23.20
2010,08,14,11,04,23.30
2010,08,14,11,05,23.40
2010,08,14,11,06,23.50
2010,08,14,11,07,23.50
2010,08,14,11,08,23.60
2010,08,14,11,09,23.70
2010,08,14,11,10,23.80
2010,08,14,11,11,23.80
2010,08,14,11,12,23.90
2010,08,14,11,13,23.90
2010,08,14,11,14,23.90
2010,08,14,11,15,23.90
2010,08,14,11,16,23.80
2010,08,14,11,17,23.80
2010,08,14,11,18,23.80
2010,08,14,11,19,23.90
2010,08,14,11,20,23.90
2010,08,14,11,21,23.90
2010,08,14,11,22,24.00
2010,08,14,11,23,24.00
2010,08,14,11,24,24.10
2010,08,14,11,25,24.10
2010,08,14,11,26,24.10
2010,08,14,11,27,24.20
2010,08,14,11,28,24.20
2010,08,14,11,29,24.20
2010,08,14,11,30,24.30
2010,08,14,11,31,24.30
2010,08,14,11,32,24.40
2010,08,14,11,33,24.50
2010,08,14,11,34,24.50
2010,08,14,11,35,24.60
2010,08,14,11,36,24.60
2010,08,14,11,37,24.70
2010,08,14,11,38,24.70
2010,08,14,11,39,24.70
2010,08,14,11,40,24.80
2010,08,14,11,41,24.80
2010,08,14,11,42,24.80
2010,08,14,11,43,24.80
2010,08,14,11,44,24.90
2010,08,14,11,45,24.90
2010,08,14,11,46,24.90
2010,08,14,11,47,24.90
2010,08,14,11,48,25.00
2010,08,14,11,49,25.00
2010,08,14,11,50,25.00
2010,08,14,11,51,25.00
2010,08,14,11,52,25.10
2010,08,14,11,53,25.10
2010,08,14,11,54,25.20
2010,08,14,11,55,25.20
2010,08,14,11,56,25.20
2010,08,14,11,57,25.30
2010,08,14,11,58,25.30
2010,08,14,11,59,25.20
2010,08,14,12,00,25.20
2010,08,14,12,01,25.10
2010,08,14,12,02,25.00
2010,08,14,12,03,25.00
2010,08,14,12,04,25.00
2010,08,14,12,05,25.00
2010,08,14,12,06,25.00
2010,08,14,12,07,25.10
2010,08,14,12,08,25.10
2010,08,14,12,09,25.10
2010,08,14,12,10,25.10
2010,08,14,12,11,25.10
2010,08,14,12,12,25.10
2010,08,14,12,13,25.10
2010,08,14,12,14,25.10
2010,08,14,12,15,25.00
2010,08,14,12,16,25.00
2010,08,14,12,17,25.00
2010,08,14,12,18,25.00
2010,08,14,12,19,25.00
2010,08,14,12,20,25.00
2010,08,14,12,21,25.00
2010,08,14,12,22,25.00
2010,08,14,12,23,25.10
2010,08,14,12,24,25.00
2010,08,14,12,25,25.00
2010,08,14,12,26,25.00
2010,08,14,12,27,24.90
2010,08,14,12,28,24.90
2010,08,14,12,29,24.90
2010,08,14,12,30,24.90
2010,08,14,12,31,25.00
2010,08,14,12,32,25.00
2010,08,14,12,33,25.10
2010,08,14,12,34,25.10
2010,08,14,12,35,25.10
2010,08,14,12,36,25.10
2010,08,14,12,37,25.10
2010,08,14,12,38,25.10
2010,08,14,12,39,25.20
2010,08,14,12,40,25.20
2010,08,14,12,41,25.20
2010,08,14,12,42,25.20
2010,08,14,12,43,25.20
2010,08,14,12,44,25.20
2010,08,14,12,45,25.20
2010,08,14,12,46,25.20
2010,08,14,12,47,25.20
2010,08,14,12,48,25.20
2010,08,14,12,49,25.20
2010,08,14,12,50,25.20
2010,08,14,12,51,25.20
2010,08,14,12,52,25.20
2010,08,14,12,53,25.20
2010,08,14,12,54,25.30
2010,08,14,12,55,25.30
2010,08,14,12,56,25.40
2010,08,14,12,57,25.40
2010,08,14,12,58,25.50
2010,08,14,12,59,25.40
2010,08,14,13,00,25.40
2010,08,14,13,01,25.40
2010,08,14,13,02,25.30
2010,08,14,13,03,25.30
2010,08,14,13,04,25.20
2010,08,14,13,05,25.20
2010,08,14,13,06,25.10
2010,08,14,13,07,25.00
2010,08,14,13,08,25.00
2010,08,14,13,09,25.00
2010,08,14,13,10,25.10
2010,08,14,13,11,25.10
2010,08,14,13,12,25.10
2010,08,14,13,13,25.10
2010,08,14,13,14,25.10
2010,08,14,13,15,25.20
2010,08,14,13,16,25.20
2010,08,14,13,17,25.20
2010,08,14,13,18,25.20
2010,08,14,13,19,25.20
2010,08,14,13,20,25.30
2010,08,14,13,21,25.30
2010,08,14,13,22,25.30
2010,08,14,13,23,25.40
2010,08,14,13,24,25.40
2010,08,14,13,25,25.40
2010,08,14,13,26,25.50
2010,08,14,13,27,25.50
2010,08,14,13,28,25.50
2010,08,14,13,29,25.50
2010,08,14,13,30,25.60
2010,08,14,13,31,25.60
2010,08,14,13,32,25.70
2010,08,14,13,33,25.80
2010,08,14,13,34,25.80
2010,08,14,13,35,25.90
2010,08,14,13,36,26.00
2010,08,14,13,37,26.10
2010,08,14,13,38,26.10
2010,08,14,13,39,26.20
2010,08,14,13,40,26.30
2010,08,14,13,41,26.40
2010,08,14,13,42,26.50
2010,08,14,13,43,26.50
2010,08,14,13,44,26.60
2010,08,14,13,45,26.60
2010,08,14,13,46,26.70
2010,08,14,13,47,26.70
2010,08,14,13,48,26.70
2010,08,14,13,49,26.80
2010,08,14,13,50,26.90
2010,08,14,13,51,27.00
2010,08,14,13,52,27.10
2010,08,14,13,53,27.20
2010,08,14,13,54,27.20
2010,08,14,13,55,27.20
2010,08,14,13,56,27.10
2010,08,14,13,57,27.10
2010,08,14,13,58,27.00
2010,08,14,13,59,26.90
2010,08,14,14,00,26.90
2010,08,14,14,01,26.80
2010,08,14,14,02,26.70
2010,08,14,14,03,26.70
2010,08,14,14,04,26.70
2010,08,14,14,05,26.70
2010,08,14,14,06,26.70
2010,08,14,14,07,26.70
2010,08,14,14,08,26.80
2010,08,14,14,09,26.90
2010,08,14,14,10,27.00
2010,08,14,14,11,27.10
2010,08,14,14,12,27.20
2010,08,14,14,13,27.30
2010,08,14,14,14,27.30
2010,08,14,14,15,27.30
2010,08,14,14,16,27.40
2010,08,14,14,17,27.40
2010,08,14,14,18,27.50
2010,08,14,14,19,27.50
2010,08,14,14,20,27.60
2010,08,14,14,21,27.70
2010,08,14,14,22,27.70
2010,08,14,14,23,27.80
2010,08,14,14,24,27.80
2010,08,14,14,25,27.90
2010,08,14,14,26,27.90
2010,08,14,14,27,27.90
2010,08,14,14,28,28.00
2010,08,14,14,29,28.00
2010,08,14,14,30,28.10
2010,08,14,14,31,28.10
2010,08,14,14,32,28.10
2010,08,14,14,33,28.10
2010,08,14,14,34,28.10
2010,08,14,14,35,28.20
2010,08,14,14,36,28.30
2010,08,14,14,37,28.30
2010,08,14,14,38,28.40
2010,08,14,14,39,28.40
2010,08,14,14,40,28.40
2010,08,14,14,41,28.50
2010,08,14,14,42,28.50
2010,08,14,14,43,28.50
2010,08,14,14,44,28.50
2010,08,14,14,45,28.60
2010,08,14,14,46,28.60
2010,08,14,14,47,28.70
2010,08,14,14,48,28.70
2010,08,14,14,49,28.80
2010,08,14,14,50,28.90
2010,08,14,14,51,28.90
2010,08,14,14,52,29.00
2010,08,14,14,53,29.10
2010,08,14,14,54,29.20
2010,08,14,14,55,29.30
2010,08,14,14,56,29.30
2010,08,14,14,57,29.30
2010,08,14,14,58,29.30
2010,08,14,14,59,29.40
2010,08,14,15,00,29.40
2010,08,14,15,01,29.40
2010,08,14,15,02,29.40
2010,08,14,15,03,29.40
2010,08,14,15,04,29.40
2010,08,14,15,05,29.40
2010,08,14,15,06,29.40
2010,08,14,15,07,29.40
2010,08,14,15,08,29.40
2010,08,14,15,09,29.40
2010,08,14,15,10,29.40
2010,08,14,15,11,29.50
2010,08,14,15,12,29.50
2010,08,14,15,13,29.60
2010,08,14,15,14,29.60
2010,08,14,15,15,29.70
2010,08,14,15,16,29.70
2010,08,14,15,17,29.80
2010,08,14,15,18,29.80
2010,08,14,15,19,29.80
2010,08,14,15,20,29.80
2010,08,14,15,21,29.90
2010,08,14,15,22,29.90
2010,08,14,15,23,29.90
2010,08,14,15,24,29.90
2010,08,14,15,25,29.90
2010,08,14,15,26,29.90
2010,08,14,15,27,29.90
2010,08,14,15,28,30.00
2010,08,14,15,29,30.00
2010,08,14,15,30,30.00
2010,08,14,15,31,30.10
2010,08,14,15,32,30.10
2010,08,14,15,33,30.10
2010,08,14,15,34,30.10
2010,08,14,15,35,30.10
2010,08,14,15,36,30.10
2010,08,14,15,37,30.20
2010,08,14,15,38,30.20
2010,08,14,15,39,30.10
2010,08,14,15,40,30.10
2010,08,14,15,41,30.10
2010,08,14,15,42,30.10
2010,08,14,15,43,30.10
2010,08,14,15,44,30.20
2010,08,14,15,45,30.20
2010,08,14,15,46,30.20
2010,08,14,15,47,30.20
2010,08,14,15,48,30.10
2010,08,14,15,49,30.20
2010,08,14,15,50,30.20
2010,08,14,15,51,30.20
2010,08,14,15,52,30.20
2010,08,14,15,53,30.20
2010,08,14,15,54,30.20
2010,08,14,15,55,30.20
2010,08,14,15,56,30.20
2010,08,14,15,57,30.20
2010,08,14,15,58,30.30
2010,08,14,15,59,30.30
2010,08,14,16,00,30.30
2010,08,14,16,01,30.30
2010,08,14,16,02,30.30
2010,08,14,16,03,30.30
2010,08,14,16,04,30.20
2010,08,14,16,05,30.20
2010,08,14,16,06,30.20
2010,08,14,16,07,30.20
2010,08,14,16,08,30.20
2010,08,14,16,09,30.20
2010,08,14,16,10,30.20
2010,08,14,16,11,30.20
2010,08,14,16,12,30.30
2010,08,14,16,13,30.30
2010,08,14,16,14,30.30
2010,08,14,16,15,30.40
2010,08,14,16,16,30.40
2010,08,14,16,17,30.40
2010,08,14,16,18,30.40
2010,08,14,16,19,30.40
2010,08,14,16,20,30.40
2010,08,14,16,21,30.40
2010,08,14,16,22,30.40
2010,08,14,16,23,30.40
2010,08,14,16,24,30.50
2010,08,14,16,25,30.50
2010,08,14,16,26,30.50
2010,08,14,16,27,30.50
2010,08,14,16,28,30.50
2010,08,14,16,29,30.50
2010,08,14,16,30,30.50
2010,08,14,16,31,30.50
2010,08,14,16,32,30.50
2010,08,14,16,33,30.60
2010,08,14,16,34,30.60
2010,08,14,16,35,30.60
2010,08,14,16,36,30.60
2010,08,14,16,37,30.60
2010,08,14,16,38,30.60
2010,08,14,16,39,30.60
2010,08,14,16,40,30.60
2010,08,14,16,41,30.60
2010,08,14,16,42,30.60
2010,08,14,16,43,30.60
2010,08,14,16,44,30.60
2010,08,14,16,45,30.50
2010,08,14,16,46,30.50
2010,08,14,16,47,30.50
2010,08,14,16,48,30.50
2010,08,14,16,49,30.50
2010,08,14,16,50,30.60
2010,08,14,16,51,30.50
2010,08,14,16,52,30.60
2010,08,14,16,53,30.60
2010,08,14,16,54,30.60
2010,08,14,16,55,30.60
2010,08,14,16,56,30.60
2010,08,14,16,57,30.70
2010,08,14,16,58,30.70
2010,08,14,16,59,30.70
2010,08,14,17,00,30.70
2010,08,14,17,01,30.70
2010,08,14,17,02,30.70
2010,08,14,17,03,30.70
2010,08,14,17,04,30.70
2010,08,14,17,05,30.70
2010,08,14,17,06,30.70
2010,08,14,17,07,30.70
2010,08,14,17,08,30.70
2010,08,14,17,09,30.60
2010,08,14,17,10,30.60
2010,08,14,17,11,30.60
2010,08,14,17,12,30.60
2010,08,14,17,13,30.60
2010,08,14,17,14,30.60
2010,08,14,17,15,30.60
2010,08,14,17,16,30.60
2010,08,14,17,17,30.70
2010,08,14,17,18,30.70
2010,08,14,17,19,30.70